Regional Weather Roundup
Issued by NWS Bismarck, ND

Home | Current Version | Previous Version | Text Only | Print | Product List | Glossary On
Versions: 1 2 3 4 5 6 7 8 9 10 11 12 13 14 15 16 17 18 19 20 21 22 23 24 25 26 27 28 29 30 31 32 33 34 35 36 37 38 39 40 41 42 43 44 45 46 47 48 49 50
000
ASUS43 KBIS 032010
RWRBIS

NWR BROADCAST TEXT
NATIONAL WEATHER SERVICE BISMARCK ND
300 PM CDT THU SEP 03 2015

NOTE: "FAIR" INDICATES FEW OR NO CLOUDS BELOW 12,000 FEET WITH NO
SIGNIFICANT WEATHER AND/OR OBSTRUCTIONS TO VISIBILITY.


CITY           SKY/WX    TMP DP  RH WIND       PRES   REMARKS
WILLISTON      MOSUNNY   87  50  27 N21       29.72R
MINOT          FAIR      92  62  36 SW12      29.65R HX  92
MINOT AFB      SUNNY     93  66  40 SW10      29.64R HX  95
BISMARCK       PTSUNNY   97  62  31 S15       29.66F HX  98
DICKINSON      MOSUNNY   89  53  29 N10G20    29.71S
GARRISON         N/A     95  59  30 SW10G20   29.66R HX  94
HETTINGER ARPT SUNNY     92  45  19 W12       29.74F
JAMESTOWN      SUNNY     94  67  41 S16G28    29.71F HX  97
CROSBY         FAIR      82  48  30 N20G26    29.72F
HARVEY         FAIR      99  57  25 S16G23    29.64F HX  97
HAZEN            N/A     91  55  29 S9        29.66F
LINTON         FAIR      99  73  44 S21G30    29.68F HX 109
OAKES            N/A     95  88  79 S16       29.74F HX 133
RUGBY          FAIR      93  66  40 S16G22    29.63F HX  96
STANLEY        FAIR      84  70  61 N13G21    29.70F
$$

CITY           SKY/WX    TMP DP  RH WIND       PRES   REMARKS
GRAND FORKS    MOSUNNY   91  71  51 S21G35    29.70F HX  97
GRAND FORKS AF SUNNY     91  72  53 S23G31    29.70F HX  98
DEVILS LAKE    SUNNY     90  70  51 SE16      29.67F HX  95
FARGO          SUNNY     92  71  50 S18G29    29.75F HX  98
CAVALIER       FAIR      90  72  55 S17G26    29.69F HX  96
GRAFTON        FAIR      90  73  58 SE25      29.71F HX  98
GWINNER          N/A     95 N/A N/A S14       29.75F
LANGDON        FAIR      86  70  58 SE20G26   29.72F HX  90
ROLLA            N/A     88  68  51 SE16G23   29.68F HX  91
$$

CITY           SKY/WX    TMP DP  RH WIND       PRES   REMARKS
ABERDEEN       SUNNY     92  72  51 S13       29.74F HX  99
MOBRIDGE       MOSUNNY   98  62  30 S17G28    29.67F HX  99
BUFFALO          N/A     84  48  28 NW14      29.72R
RAPID CITY     MOSUNNY   96  49  20 S13       29.75F HX  93
GLASGOW        MOSUNNY   79  40  24 NE15G22   29.79F
SIDNEY         PTSUNNY   84  46  26 N16G23      N/A
WOLF POINT     PTSUNNY   84  45  25 NE15G24   29.76S
GLENDIVE       PTSUNNY   82  45  26 N10       29.75R
MILES CITY     MOSUNNY   84  43  23 VRB6      29.75F
BAKER          MOSUNNY   85  46  25 N9        29.77F
$$

CITY           SKY/WX    TMP DP  RH WIND       PRES   REMARKS
BILLINGS       CLOUDY    74  37  26 NE10      29.83F
GREAT FALLS    CLOUDY    61  40  45 N15G22    29.92S
REGINA         PTSUNNY   70  45  40 N18G26    29.82F
ESTEVAN        CLOUDY    84  63  48 NW15      29.71F
$$




USA.gov is the U.S. government's official web portal to all federal, state and local government web resources and services.